DL1MX-13 Weather Reports


time (UTC)temp
C
wind
direction
speed
KPH
gust
KPH
rain 1hr
cm
rain 24hr
cm
rain mn
cm
humidity
%
barometer
mb
20260505164301 12 227 9.7 0.0 0.00 0.00 0.00 88 1008.2
20260505164202 12 220 6.4 0.0 0.00 0.00 0.00 88 1008.2
20260505164101 12 220 6.4 0.0 0.00 0.00 0.00 88 1008.2
20260505164002 12 222 9.7 0.0 0.00 0.00 0.00 87 1008.2
20260505163901 12 222 9.7 0.0 0.00 0.00 0.00 87 1008.2
20260505163802 12 212 9.7 0.0 0.00 0.00 0.00 87 1008.3
20260505163702 12 212 9.7 0.0 0.00 0.00 0.00 87 1008.3
20260505163601 12 212 9.7 0.0 0.00 0.00 0.00 87 1008.3
20260505163502 12 212 9.7 0.0 0.00 0.00 0.00 87 1008.3
20260505163402 12 212 9.7 0.0 0.00 0.00 0.00 87 1008.3
20260505163302 12 212 9.7 0.0 0.00 0.00 0.00 87 1008.3
20260505163201 12 212 9.7 0.0 0.00 0.00 0.00 87 1008.3
20260505163102 12 217 9.7 0.0 0.00 0.00 0.00 88 1008.3
20260505163001 12 217 9.7 0.0 0.00 0.00 0.00 88 1008.3
20260505162902 12 217 9.7 0.0 0.00 0.00 0.00 88 1008.4
20260505162802 12 212 8.0 0.0 0.00 0.00 0.00 88 1008.4
20260505162702 12 212 8.0 0.0 0.00 0.00 0.00 88 1008.4
20260505162602 12 212 8.0 0.0 0.00 0.00 0.00 88 1008.4
20260505162502 12 220 9.7 0.0 0.00 0.00 0.00 87 1008.4
20260505162402 12 220 9.7 0.0 0.00 0.00 0.00 87 1008.4
20260505162305 12 220 9.7 0.0 0.00 0.00 0.00 87 1008.4
20260505162202 12 222 12.9 0.0 0.00 0.00 0.00 87 1008.4
20260505162102 12 222 12.9 0.0 0.00 0.00 0.00 87 1008.4
20260505162002 12 222 12.9 0.0 0.00 0.00 0.00 87 1008.5
20260505161902 12 232 9.7 0.0 0.00 0.00 0.00 87 1008.4
20260505161802 12 232 9.7 0.0 0.00 0.00 0.00 87 1008.4
20260505161702 12 232 11.3 0.0 0.00 0.00 0.00 87 1008.4
20260505161602 12 232 11.3 0.0 0.00 0.00 0.00 87 1008.4
20260505161502 12 232 11.3 0.0 0.00 0.00 0.00 87 1008.5
20260505161402 12 232 11.3 0.0 0.00 0.00 0.00 87 1008.4
20260505161301 12 232 11.3 0.0 0.00 0.00 0.00 87 1008.4
20260505161202 12 215 8.0 0.0 0.00 0.00 0.00 87 1008.5
20260505161101 12 215 8.0 0.0 0.00 0.00 0.00 87 1008.4
20260505161005 12 215 8.0 0.0 0.00 0.00 0.00 87 1008.4
20260505160901 12 212 8.0 0.0 0.00 0.00 0.00 87 1008.4
20260505160802 12 212 8.0 0.0 0.00 0.00 0.00 87 1008.4
20260505160701 12 215 6.4 0.0 0.00 0.00 0.00 87 1008.4
20260505160602 12 215 6.4 0.0 0.00 0.00 0.00 87 1008.4
20260505160502 12 215 6.4 0.0 0.00 0.00 0.00 87 1008.4
20260505160402 12 215 9.7 0.0 0.00 0.00 0.00 88 1008.3
20260505160302 12 215 9.7 0.0 0.00 0.00 0.00 88 1008.4
20260505160202 12 222 6.4 0.0 0.00 0.00 0.00 88 1008.4
20260505153302 12 215 9.7 0.0 0.00 0.00 0.00 89 1008.5
20260505153202 12 217 12.9 0.0 0.00 0.00 0.00 89 1008.5
20260505153102 12 217 12.9 0.0 0.00 0.00 0.00 89 1008.6
20260505153002 12 217 12.9 0.0 0.00 0.00 0.00 89 1008.6
20260505152902 12 207 9.7 0.0 0.00 0.00 0.00 89 1008.6
20260505152801 12 207 9.7 0.0 0.00 0.00 0.00 89 1008.5
20260505152702 12 207 9.7 0.0 0.00 0.00 0.00 89 1008.6
20260505152601 12 222 9.7 0.0 0.00 0.00 0.00 89 1008.6
20260505152502 12 222 9.7 0.0 0.00 0.00 0.00 89 1008.6
20260505152402 12 222 9.7 0.0 0.00 0.00 0.00 89 1008.6
20260505152305 12 225 8.0 0.0 0.00 0.00 0.00 89 1008.5
20260505152202 12 225 8.0 0.0 0.00 0.00 0.00 89 1008.6
20260505152101 12 225 6.4 0.0 0.00 0.00 0.00 89 1008.6
20260505152002 12 225 6.4 0.0 0.00 0.00 0.00 89 1008.6
20260505151901 12 225 6.4 0.0 0.00 0.00 0.00 89 1008.5
20260505151802 12 225 6.4 0.0 0.00 0.00 0.00 89 1008.5
20260505151702 12 225 6.4 0.0 0.00 0.00 0.00 89 1008.6
20260505151602 12 222 9.7 0.0 0.00 0.00 0.00 89 1008.6
20260505151502 12 220 20.9 0.0 0.00 0.00 0.00 89 1008.6
20260505151402 12 217 8.0 0.0 0.00 0.00 0.00 89 1008.6
20260505151302 12 222 9.7 0.0 0.00 0.00 0.00 89 1008.6
20260505151201 12 222 9.7 0.0 0.00 0.00 0.00 89 1008.6
20260505151102 12 222 9.7 0.0 0.00 0.00 0.00 89 1008.6
20260505151001 12 222 9.7 0.0 0.00 0.00 0.00 89 1008.6
20260505150902 12 225 11.3 0.0 0.00 0.00 0.00 89 1008.6
20260505150801 12 225 11.3 0.0 0.00 0.00 0.00 89 1008.6
20260505150702 12 225 11.3 0.0 0.00 0.00 0.00 89 1008.6
20260505150602 12 215 9.7 0.0 0.00 0.00 0.00 89 1008.7
20260505150502 12 215 9.7 0.0 0.00 0.00 0.00 89 1008.7
20260505150402 12 215 9.7 0.0 0.00 0.00 0.00 89 1008.8
20260505150301 12 230 4.8 0.0 0.00 0.00 0.00 88 1008.8
20260505150202 12 230 4.8 0.0 0.00 0.00 0.00 88 1008.7
20260505140601 12 220 4.8 0.0 0.00 0.00 0.00 86 1009.2
20260505140502 12 220 4.8 0.0 0.00 0.00 0.00 86 1009.2
20260505140401 12 220 4.8 0.0 0.00 0.00 0.00 86 1009.2
20260505140302 12 220 4.8 0.0 0.00 0.00 0.00 86 1009.2
20260505140201 12 220 4.8 0.0 0.00 0.00 0.00 86 1009.2
20260505130301 14 220 6.4 0.0 0.00 0.00 0.00 80 1009.5
20260505130202 14 220 6.4 0.0 0.00 0.00 0.00 80 1009.4
20260505125002 15 215 11.3 0.0 0.00 0.00 0.00 80 1009.5
20260505124901 15 205 6.4 0.0 0.00 0.00 0.00 80 1009.5
20260505124802 15 205 6.4 0.0 0.00 0.00 0.00 80 1009.5
20260505124701 15 205 6.4 0.0 0.00 0.00 0.00 80 1009.5
20260505124602 15 220 11.3 0.0 0.00 0.00 0.00 79 1009.5
20260505124501 15 220 11.3 0.0 0.00 0.00 0.00 79 1009.5
20260505124402 15 227 8.0 0.0 0.00 0.00 0.00 79 1009.5
20260505124302 15 227 8.0 0.0 0.00 0.00 0.00 79 1009.5
20260505124201 15 227 8.0 0.0 0.00 0.00 0.00 79 1009.5
20260505124102 15 165 6.4 0.0 0.00 0.00 0.00 79 1009.6
20260505124001 15 165 6.4 0.0 0.00 0.00 0.00 79 1009.6
20260505123902 15 152 8.0 0.0 0.00 0.00 0.00 78 1009.5
20260505123801 15 152 8.0 0.0 0.00 0.00 0.00 78 1009.6
20260505123702 15 152 8.0 0.0 0.00 0.00 0.00 78 1009.6
20260505123602 15 130 6.4 0.0 0.00 0.00 0.00 77 1009.6
20260505123501 15 130 6.4 0.0 0.00 0.00 0.00 77 1009.6
20260505123402 16 140 9.7 0.0 0.00 0.00 0.00 76 1009.6
20260505123301 16 140 9.7 0.0 0.00 0.00 0.00 76 1009.6
20260505123202 16 140 9.7 0.0 0.00 0.00 0.00 76 1009.6
20260505123101 16 122 9.7 0.0 0.00 0.00 0.00 72 1009.6
20260505123002 16 122 9.7 0.0 0.00 0.00 0.00 72 1009.5
20260505122902 16 122 9.7 0.0 0.00 0.00 0.00 72 1009.5
20260505122802 16 85 0.0 0.0 0.00 0.00 0.00 72 1009.5
20260505122702 16 85 0.0 0.0 0.00 0.00 0.00 72 1009.6
20260505122601 16 52 0.0 0.0 0.00 0.00 0.00 72 1009.6
20260505122502 16 52 0.0 0.0 0.00 0.00 0.00 72 1009.5
20260505122401 16 10 0.0 0.0 0.00 0.00 0.00 71 1009.6
20260505122305 16 10 0.0 0.0 0.00 0.00 0.00 71 1009.6
20260505122201 16 10 0.0 0.0 0.00 0.00 0.00 71 1009.6
20260505122102 16 145 0.0 0.0 0.00 0.00 0.00 72 1009.6
20260505122002 16 145 0.0 0.0 0.00 0.00 0.00 72 1009.6
20260505121901 16 145 0.0 0.0 0.00 0.00 0.00 72 1009.6
20260505121802 16 145 0.0 0.0 0.00 0.00 0.00 72 1009.6
20260505121701 16 145 0.0 0.0 0.00 0.00 0.00 72 1009.6
20260505121602 16 145 0.0 0.0 0.00 0.00 0.00 72 1009.6
20260505121501 16 195 0.0 0.0 0.00 0.00 0.00 71 1009.6
20260505121402 16 195 0.0 0.0 0.00 0.00 0.00 71 1009.6
20260505121301 16 212 0.0 0.0 0.00 0.00 0.00 71 1009.6
20260505121202 16 212 0.0 0.0 0.00 0.00 0.00 71 1009.6
20260505121102 16 75 0.0 0.0 0.00 0.00 0.00 69 1009.6
20260505121002 16 75 0.0 0.0 0.00 0.00 0.00 69 1009.6
20260505120901 16 75 0.0 0.0 0.00 0.00 0.00 69 1009.6
20260505120802 16 75 0.0 0.0 0.00 0.00 0.00 69 1009.6
20260505120702 16 75 0.0 0.0 0.00 0.00 0.00 69 1009.6
20260505120602 16 75 0.0 0.0 0.00 0.00 0.00 69 1009.6
20260505120502 16 217 0.0 0.0 0.00 0.00 0.00 70 1009.6
20260505120401 16 217 0.0 0.0 0.00 0.00 0.00 70 1009.6
20260505120302 16 225 0.0 0.0 0.00 0.00 0.00 70 1009.6
20260505120201 16 225 0.0 0.0 0.00 0.00 0.00 70 1009.6
20260505120001 16 265 4.8 0.0 0.00 0.00 0.00 70 1009.6
20260505115902 16 265 4.8 0.0 0.00 0.00 0.00 70 1009.6
20260505115802 16 20 0.0 0.0 0.00 0.00 0.00 70 1009.7
20260505115702 16 20 0.0 0.0 0.00 0.00 0.00 70 1009.6
20260505115602 16 20 0.0 0.0 0.00 0.00 0.00 70 1009.6
20260505115501 16 20 0.0 0.0 0.00 0.00 0.00 70 1009.7
20260505115402 16 20 0.0 0.0 0.00 0.00 0.00 70 1009.7
20260505115304 16 12 0.0 0.0 0.00 0.00 0.00 70 1009.6
20260505115202 16 12 0.0 0.0 0.00 0.00 0.00 70 1009.7
20260505115102 16 12 0.0 0.0 0.00 0.00 0.00 70 1009.6
20260505115002 17 330 6.4 0.0 0.00 0.00 0.00 70 1009.7
20260505114902 17 330 6.4 0.0 0.00 0.00 0.00 70 1009.7
20260505114801 17 310 3.2 0.0 0.00 0.00 0.00 69 1009.7
20260505114702 17 310 3.2 0.0 0.00 0.00 0.00 69 1009.7
20260505114601 17 310 3.2 0.0 0.00 0.00 0.00 69 1009.7
20260505114502 17 260 4.8 0.0 0.00 0.00 0.00 69 1009.7
20260505114401 17 260 4.8 0.0 0.00 0.00 0.00 69 1009.7
20260505114302 17 260 4.8 0.0 0.00 0.00 0.00 69 1009.7
20260505114202 17 225 4.8 0.0 0.00 0.00 0.00 69 1009.7
20260505114102 17 225 4.8 0.0 0.00 0.00 0.00 69 1009.8
20260505114002 17 90 0.0 0.0 0.00 0.00 0.00 68 1009.8
20260505113901 17 90 0.0 0.0 0.00 0.00 0.00 68 1009.7
20260505113802 17 90 0.0 0.0 0.00 0.00 0.00 68 1009.7
20260505113701 17 90 0.0 0.0 0.00 0.00 0.00 68 1009.8
20260505113602 17 90 0.0 0.0 0.00 0.00 0.00 68 1009.8
20260505113502 17 105 0.0 0.0 0.00 0.00 0.00 69 1009.8
20260505113402 17 105 0.0 0.0 0.00 0.00 0.00 69 1009.8
20260505113302 17 105 0.0 0.0 0.00 0.00 0.00 69 1009.8
20260505113201 17 115 0.0 0.0 0.00 0.00 0.00 72 1009.8
20260505113102 17 115 0.0 0.0 0.00 0.00 0.00 72 1009.8
20260505113002 17 115 0.0 0.0 0.00 0.00 0.00 72 1009.8
20260505112902 17 115 0.0 0.0 0.00 0.00 0.00 72 1009.8
20260505112801 17 115 0.0 0.0 0.00 0.00 0.00 72 1009.8
20260505112702 17 15 6.4 0.0 0.00 0.00 0.00 72 1009.9
20260505112602 17 15 6.4 0.0 0.00 0.00 0.00 72 1009.8
20260505112501 17 15 6.4 0.0 0.00 0.00 0.00 72 1009.8
20260505112402 17 15 6.4 0.0 0.00 0.00 0.00 72 1009.8
20260505112301 17 15 6.4 0.0 0.00 0.00 0.00 72 1009.8
20260505112202 17 255 0.0 0.0 0.00 0.00 0.00 73 1009.8
20260505112101 17 255 0.0 0.0 0.00 0.00 0.00 73 1009.9
20260505112002 17 255 0.0 0.0 0.00 0.00 0.00 73 1009.9
20260505111901 17 235 0.0 0.0 0.00 0.00 0.00 72 1009.9
20260505111801 17 235 0.0 0.0 0.00 0.00 0.00 72 1009.9
20260505111702 17 255 0.0 0.0 0.00 0.00 0.00 72 1009.9
20260505111601 17 255 0.0 0.0 0.00 0.00 0.00 72 1009.9
20260505111502 16 250 4.8 0.0 0.00 0.00 0.00 75 1009.9
20260505111401 16 250 4.8 0.0 0.00 0.00 0.00 75 1009.9
20260505111302 16 250 4.8 0.0 0.00 0.00 0.00 75 1010.0
20260505111202 16 230 4.8 0.0 0.00 0.00 0.00 75 1009.9
20260505111102 16 230 4.8 0.0 0.00 0.00 0.00 75 1010.0
20260505111002 16 230 4.8 0.0 0.00 0.00 0.00 75 1010.0
20260505110902 16 187 0.0 0.0 0.00 0.00 0.00 73 1010.0
20260505110802 16 187 0.0 0.0 0.00 0.00 0.00 73 1010.1
20260505110701 16 160 0.0 0.0 0.00 0.00 0.00 74 1010.1
20260505110602 16 160 0.0 0.0 0.00 0.00 0.00 74 1010.1
20260505110501 16 65 8.0 0.0 0.00 0.00 0.00 77 1010.1
20260505110402 16 65 8.0 0.0 0.00 0.00 0.00 77 1010.1
20260505110302 16 65 8.0 0.0 0.00 0.00 0.00 77 1010.1
20260505110202 16 65 8.0 0.0 0.00 0.00 0.00 77 1010.1
20260505102201 14 147 0.0 0.0 0.00 0.00 0.00 78 1010.5
20260505102102 14 147 0.0 0.0 0.00 0.00 0.00 78 1010.5
20260505102001 14 147 0.0 0.0 0.00 0.00 0.00 78 1010.5
20260505101902 14 120 0.0 0.0 0.00 0.00 0.00 78 1010.5
20260505101801 14 120 0.0 0.0 0.00 0.00 0.00 78 1010.4
20260505101702 14 82 0.0 0.0 0.00 0.00 0.00 78 1010.4
20260505101602 14 82 0.0 0.0 0.00 0.00 0.00 78 1010.4
20260505101501 14 82 0.0 0.0 0.00 0.00 0.00 78 1010.5
20260505101402 14 80 6.4 0.0 0.00 0.00 0.00 77 1010.5
20260505101301 14 80 6.4 0.0 0.00 0.00 0.00 77 1010.5
20260505101202 14 80 6.4 0.0 0.00 0.00 0.00 77 1010.5
20260505101102 14 72 8.0 0.0 0.00 0.00 0.00 77 1010.5
20260505101001 14 72 8.0 0.0 0.00 0.00 0.00 77 1010.5
20260505100902 15 85 0.0 0.0 0.00 0.00 0.00 77 1010.5
20260505100801 15 85 0.0 0.0 0.00 0.00 0.00 77 1010.5
20260505100702 15 85 0.0 0.0 0.00 0.00 0.00 77 1010.5
20260505100601 15 95 0.0 0.0 0.00 0.00 0.00 78 1010.5
20260505100502 15 95 0.0 0.0 0.00 0.00 0.00 78 1010.5
20260505100402 15 95 0.0 0.0 0.00 0.00 0.00 78 1010.5
20260505100301 15 147 0.0 0.0 0.00 0.00 0.00 78 1010.4
20260505100202 15 147 0.0 0.0 0.00 0.00 0.00 78 1010.5
20260505100101 15 147 0.0 0.0 0.00 0.00 0.00 78 1010.5
20260505100002 15 107 0.0 0.0 0.00 0.00 0.00 76 1010.5
20260505095901 15 107 0.0 0.0 0.00 0.00 0.00 76 1010.5
20260505095802 15 107 0.0 0.0 0.00 0.00 0.00 76 1010.4
20260505095702 15 107 0.0 0.0 0.00 0.00 0.00 76 1010.5
20260505095602 15 107 0.0 0.0 0.00 0.00 0.00 76 1010.5
20260505095502 15 107 0.0 0.0 0.00 0.00 0.00 76 1010.5
20260505095401 15 107 0.0 0.0 0.00 0.00 0.00 76 1010.5
20260505095304 15 90 0.0 0.0 0.00 0.00 0.00 77 1010.4
20260505095201 15 90 0.0 0.0 0.00 0.00 0.00 77 1010.4
20260505095102 15 85 0.0 0.0 0.00 0.00 0.00 76 1010.5
20260505095001 15 85 0.0 0.0 0.00 0.00 0.00 76 1010.4
20260505094901 15 107 0.0 0.0 0.00 0.00 0.00 77 1010.4
20260505094802 15 107 0.0 0.0 0.00 0.00 0.00 77 1010.4
20260505094701 15 107 0.0 0.0 0.00 0.00 0.00 77 1010.4
20260505094602 15 140 0.0 0.0 0.00 0.00 0.00 76 1010.4
20260505094501 15 140 0.0 0.0 0.00 0.00 0.00 76 1010.5
20260505094402 15 190 0.0 0.0 0.00 0.00 0.00 76 1010.4
20260505094302 15 190 0.0 0.0 0.00 0.00 0.00 76 1010.5
20260505094201 15 190 0.0 0.0 0.00 0.00 0.00 76 1010.5
20260505094102 15 12 0.0 0.0 0.00 0.00 0.00 76 1010.5
20260505094001 15 12 0.0 0.0 0.00 0.00 0.00 76 1010.5
20260505093902 15 12 0.0 0.0 0.00 0.00 0.00 76 1010.5
20260505093801 15 12 0.0 0.0 0.00 0.00 0.00 76 1010.5
20260505093702 15 12 0.0 0.0 0.00 0.00 0.00 76 1010.5
20260505093501 15 325 0.0 0.0 0.00 0.00 0.00 77 1010.5
20260505093402 15 250 0.0 0.0 0.00 0.00 0.00 78 1010.5
20260505093301 15 250 0.0 0.0 0.00 0.00 0.00 78 1010.5
20260505093202 15 250 0.0 0.0 0.00 0.00 0.00 78 1010.5
20260505093101 14 175 0.0 0.0 0.00 0.00 0.00 78 1010.5
20260505093002 14 175 0.0 0.0 0.00 0.00 0.00 78 1010.5
20260505092902 14 175 0.0 0.0 0.00 0.00 0.00 78 1010.5
20260505092802 14 217 0.0 0.0 0.00 0.00 0.00 77 1010.5
20260505092702 14 217 0.0 0.0 0.00 0.00 0.00 77 1010.5
20260505092601 14 217 0.0 0.0 0.00 0.00 0.00 78 1010.5
20260505092502 14 217 0.0 0.0 0.00 0.00 0.00 78 1010.5
20260505092401 14 217 0.0 0.0 0.00 0.00 0.00 78 1010.5
20260505092304 14 217 0.0 0.0 0.00 0.00 0.00 78 1010.5
20260505092201 14 217 0.0 0.0 0.00 0.00 0.00 78 1010.5
20260505092102 14 210 0.0 0.0 0.00 0.00 0.00 78 1010.5
20260505092002 14 210 0.0 0.0 0.00 0.00 0.00 78 1010.5
20260505091901 14 247 0.0 0.0 0.00 0.00 0.00 78 1010.5
20260505091802 14 247 0.0 0.0 0.00 0.00 0.00 78 1010.5
20260505091701 14 247 0.0 0.0 0.00 0.00 0.00 78 1010.5
20260505091602 14 247 0.0 0.0 0.00 0.00 0.00 78 1010.5
20260505091502 14 247 0.0 0.0 0.00 0.00 0.00 78 1010.5
20260505091402 14 247 0.0 0.0 0.00 0.00 0.00 78 1010.5
20260505091301 14 247 0.0 0.0 0.00 0.00 0.00 78 1010.5
20260505091202 14 217 0.0 0.0 0.00 0.00 0.00 78 1010.5
20260505091101 14 217 0.0 0.0 0.00 0.00 0.00 78 1010.5
20260505091002 14 217 0.0 0.0 0.00 0.00 0.00 78 1010.5
20260505090902 14 250 0.0 0.0 0.00 0.00 0.00 79 1010.5
20260505090802 14 250 0.0 0.0 0.00 0.00 0.00 79 1010.5
20260505090701 14 250 0.0 0.0 0.00 0.00 0.00 79 1010.5
20260505090602 14 250 0.0 0.0 0.00 0.00 0.00 79 1010.5
20260505090502 14 250 0.0 0.0 0.00 0.00 0.00 79 1010.5
20260505090402 14 250 0.0 0.0 0.00 0.00 0.00 79 1010.5
20260505090302 14 250 0.0 0.0 0.00 0.00 0.00 79 1010.5
20260505090201 14 225 0.0 0.0 0.00 0.00 0.00 80 1010.5
20260505090001 14 225 0.0 0.0 0.00 0.00 0.00 80 1010.5
20260505085902 14 217 0.0 0.0 0.00 0.00 0.00 79 1010.6
20260505085801 14 217 0.0 0.0 0.00 0.00 0.00 79 1010.6
20260505085703 14 217 0.0 0.0 0.00 0.00 0.00 79 1010.6
20260505085601 14 220 0.0 0.0 0.00 0.00 0.00 80 1010.6
20260505085502 14 220 0.0 0.0 0.00 0.00 0.00 80 1010.6
20260505085401 14 220 0.0 0.0 0.00 0.00 0.00 80 1010.6
20260505085304 14 220 0.0 0.0 0.00 0.00 0.00 80 1010.6
20260505085201 14 220 0.0 0.0 0.00 0.00 0.00 80 1010.6
20260505085102 14 220 0.0 0.0 0.00 0.00 0.00 80 1010.6
20260505085002 14 220 0.0 0.0 0.00 0.00 0.00 80 1010.6
20260505084901 14 220 0.0 0.0 0.00 0.00 0.00 80 1010.6
20260505084802 14 220 0.0 0.0 0.00 0.00 0.00 80 1010.6
20260505084701 14 220 0.0 0.0 0.00 0.00 0.00 80 1010.6
20260505084602 14 220 0.0 0.0 0.00 0.00 0.00 80 1010.7
20260505084501 14 220 0.0 0.0 0.00 0.00 0.00 80 1010.6
20260505084402 14 220 0.0 0.0 0.00 0.00 0.00 80 1010.7
20260505084302 14 220 0.0 0.0 0.00 0.00 0.00 81 1010.6
20260505084202 14 220 0.0 0.0 0.00 0.00 0.00 81 1010.6
20260505084102 13 217 0.0 0.0 0.00 0.00 0.00 81 1010.7
20260505084003 13 217 0.0 0.0 0.00 0.00 0.00 81 1010.7
20260505083902 13 225 0.0 0.0 0.00 0.00 0.00 82 1010.7
20260505083802 13 225 0.0 0.0 0.00 0.00 0.00 82 1010.7
20260505083701 13 225 0.0 0.0 0.00 0.00 0.00 82 1010.7
20260505083602 13 225 0.0 0.0 0.00 0.00 0.00 82 1010.7
20260505083501 13 225 0.0 0.0 0.00 0.00 0.00 82 1010.7
20260505083402 13 225 0.0 0.0 0.00 0.00 0.00 82 1010.7
20260505083301 13 105 0.0 0.0 0.00 0.00 0.00 82 1010.7
20260505083202 13 105 0.0 0.0 0.00 0.00 0.00 82 1010.7
20260505083101 13 105 0.0 0.0 0.00 0.00 0.00 82 1010.7
20260505083002 13 27 0.0 0.0 0.00 0.00 0.00 82 1010.7
20260505082901 13 27 0.0 0.0 0.00 0.00 0.00 82 1010.7
20260505082502 13 122 0.0 0.0 0.00 0.00 0.00 84 1010.7
20260505082402 13 122 0.0 0.0 0.00 0.00 0.00 84 1010.7
20260505082304 13 235 0.0 0.0 0.00 0.00 0.00 85 1010.7
20260505082202 13 235 0.0 0.0 0.00 0.00 0.00 85 1010.7
20260505082101 13 235 0.0 0.0 0.00 0.00 0.00 85 1010.7
20260505082002 13 210 0.0 0.0 0.00 0.00 0.00 85 1010.7
20260505081902 13 210 0.0 0.0 0.00 0.00 0.00 85 1010.7
20260505081802 13 295 0.0 0.0 0.00 0.00 0.00 85 1010.7
20260505081702 13 295 0.0 0.0 0.00 0.00 0.00 85 1010.7
20260505081601 13 295 0.0 0.0 0.00 0.00 0.00 85 1010.6
20260505081502 12 255 0.0 0.0 0.00 0.00 0.00 85 1010.6
20260505081401 12 255 0.0 0.0 0.00 0.00 0.00 85 1010.6
20260505081302 12 180 0.0 0.0 0.00 0.00 0.00 86 1010.6
20260505081201 12 180 0.0 0.0 0.00 0.00 0.00 86 1010.6
20260505081102 12 180 0.0 0.0 0.00 0.00 0.00 86 1010.6
20260505081002 12 180 0.0 0.0 0.00 0.00 0.00 86 1010.7
20260505080902 12 180 0.0 0.0 0.00 0.00 0.00 86 1010.6
20260505080802 12 232 0.0 0.0 0.00 0.00 0.00 87 1010.6
20260505080701 12 232 0.0 0.0 0.00 0.00 0.00 87 1010.6
20260505080602 12 232 0.0 0.0 0.00 0.00 0.00 87 1010.6
20260505080501 12 232 0.0 0.0 0.00 0.00 0.00 87 1010.6
20260505080402 12 232 0.0 0.0 0.00 0.00 0.00 87 1010.6
20260505080302 12 227 0.0 0.0 0.00 0.00 0.00 87 1010.7
20260505080202 12 227 0.0 0.0 0.00 0.00 0.00 87 1010.6
20260505080002 12 192 0.0 0.0 0.00 0.00 0.00 88 1010.6
20260505075902 12 192 0.0 0.0 0.00 0.00 0.00 88 1010.6
20260505075801 12 192 0.0 0.0 0.00 0.00 0.00 88 1010.6
20260505075702 12 192 0.0 0.0 0.00 0.00 0.00 88 1010.6
20260505075601 12 192 0.0 0.0 0.00 0.00 0.00 88 1010.7
20260505075502 12 210 0.0 0.0 0.00 0.00 0.00 90 1010.6
20260505075401 12 210 0.0 0.0 0.00 0.00 0.00 90 1010.6
20260505075304 12 210 0.0 0.0 0.00 0.00 0.00 90 1010.6
20260505075201 12 210 0.0 0.0 0.00 0.00 0.00 90 1010.7
20260505075102 12 210 0.0 0.0 0.00 0.00 0.00 90 1010.6
20260505075001 12 212 0.0 0.0 0.00 0.00 0.00 90 1010.7
20260505074902 12 212 0.0 0.0 0.00 0.00 0.00 90 1010.7
20260505074802 12 212 0.0 0.0 0.00 0.00 0.00 90 1010.7
20260505074702 12 190 0.0 0.0 0.00 0.00 0.00 90 1010.7
20260505074602 12 190 0.0 0.0 0.00 0.00 0.00 90 1010.7
20260505074501 12 165 0.0 0.0 0.00 0.00 0.00 91 1010.7
20260505074402 12 165 0.0 0.0 0.00 0.00 0.00 91 1010.7
20260505074301 12 185 0.0 0.0 0.00 0.00 0.00 91 1010.7
20260505074202 12 185 0.0 0.0 0.00 0.00 0.00 91 1010.7
20260505074101 12 185 0.0 0.0 0.00 0.00 0.00 91 1010.8
20260505074002 12 185 0.0 0.0 0.00 0.00 0.00 91 1010.7
20260505073901 12 185 0.0 0.0 0.00 0.00 0.00 91 1010.8
20260505073802 11 200 0.0 0.0 0.00 0.00 0.00 92 1010.8
20260505073702 11 200 0.0 0.0 0.00 0.00 0.00 92 1010.7
20260505073601 11 200 0.0 0.0 0.00 0.00 0.00 92 1010.7
20260505073502 11 200 0.0 0.0 0.00 0.00 0.00 92 1010.7
20260505073401 11 200 0.0 0.0 0.00 0.00 0.00 92 1010.7
20260505073302 11 200 0.0 0.0 0.00 0.00 0.00 92 1010.7
20260505073201 11 200 0.0 0.0 0.00 0.00 0.00 92 1010.7
20260505073102 11 200 0.0 0.0 0.00 0.00 0.00 92 1010.7
20260505073002 11 200 0.0 0.0 0.00 0.00 0.00 92 1010.8
20260505072902 11 200 0.0 0.0 0.00 0.00 0.00 92 1010.7
20260505072802 11 200 0.0 0.0 0.00 0.00 0.00 92 1010.8
20260505072701 11 200 0.0 0.0 0.00 0.00 0.00 92 1010.8
20260505072602 11 200 0.0 0.0 0.00 0.00 0.00 92 1010.7
20260505072501 11 200 0.0 0.0 0.00 0.00 0.00 92 1010.7
20260505072402 11 225 0.0 0.0 0.00 0.00 0.00 92 1010.7
20260505072302 11 225 0.0 0.0 0.00 0.00 0.00 92 1010.7
20260505072202 11 225 0.0 0.0 0.00 0.00 0.00 92 1010.8
20260505072102 11 225 0.0 0.0 0.00 0.00 0.00 92 1010.8
20260505072001 11 225 0.0 0.0 0.00 0.00 0.00 92 1010.7
20260505071902 11 225 0.0 0.0 0.00 0.00 0.00 92 1010.7
20260505071801 11 225 0.0 0.0 0.00 0.00 0.00 92 1010.7
20260505071702 11 220 0.0 0.0 0.00 0.00 0.00 92 1010.7
20260505071601 11 220 0.0 0.0 0.00 0.00 0.00 92 1010.7
20260505071502 11 220 0.0 0.0 0.00 0.00 0.00 92 1010.7
20260505071402 11 220 0.0 0.0 0.00 0.00 0.00 92 1010.7
20260505071302 11 220 0.0 0.0 0.00 0.00 0.00 92 1010.7
20260505071202 11 230 0.0 0.0 0.00 0.00 0.00 92 1010.7
20260505071101 11 230 0.0 0.0 0.00 0.00 0.00 92 1010.7
20260505071002 11 230 0.0 0.0 0.00 0.00 0.00 92 1010.8
20260505070901 11 230 0.0 0.0 0.00 0.00 0.00 92 1010.8
20260505070802 11 230 0.0 0.0 0.00 0.00 0.00 92 1010.8
20260505070701 11 230 0.0 0.0 0.00 0.00 0.00 92 1010.8
20260505070602 11 230 0.0 0.0 0.00 0.00 0.00 92 1010.8
20260505070501 11 230 0.0 0.0 0.00 0.00 0.00 92 1010.8
20260505070402 11 220 0.0 0.0 0.00 0.00 0.00 92 1010.8
20260505070302 11 220 0.0 0.0 0.00 0.00 0.00 92 1010.8
20260505070202 11 220 0.0 0.0 0.00 0.00 0.00 92 1010.8
20260505070001 11 207 0.0 0.0 0.00 0.00 0.00 92 1010.8
20260505065902 11 207 0.0 0.0 0.00 0.00 0.00 92 1010.8
20260505065801 11 207 0.0 0.0 0.00 0.00 0.00 92 1010.8
20260505065702 11 205 0.0 0.0 0.00 0.00 0.00 92 1010.8
20260505065602 11 205 0.0 0.0 0.00 0.00 0.00 92 1010.8
20260505065501 11 205 0.0 0.0 0.00 0.00 0.00 92 1010.8
20260505065402 11 25 0.0 0.0 0.00 0.00 0.00 92 1010.7
20260505065303 11 25 0.0 0.0 0.00 0.00 0.00 92 1010.8
20260505065202 11 25 0.0 0.0 0.00 0.00 0.00 92 1010.8
20260505065101 11 25 0.0 0.0 0.00 0.00 0.00 92 1010.8
20260505065002 11 25 0.0 0.0 0.00 0.00 0.00 92 1010.8
20260505064901 11 25 0.0 0.0 0.00 0.00 0.00 92 1010.8
20260505064802 11 25 0.0 0.0 0.00 0.00 0.00 92 1010.9
20260505064702 11 25 0.0 0.0 0.00 0.00 0.00 92 1010.8
20260505064601 11 25 0.0 0.0 0.00 0.00 0.00 92 1010.8
20260505064502 11 30 0.0 0.0 0.00 0.00 0.00 92 1010.8
20260505064401 11 30 0.0 0.0 0.00 0.00 0.00 92 1010.9
20260505064302 11 30 0.0 0.0 0.00 0.00 0.00 92 1010.9
20260505064201 11 345 0.0 0.0 0.00 0.00 0.00 92 1010.9
20260505064102 11 345 0.0 0.0 0.00 0.00 0.00 92 1010.9
20260505064002 11 345 0.0 0.0 0.00 0.00 0.00 92 1010.9
20260505063902 11 345 0.0 0.0 0.00 0.00 0.00 92 1010.9
20260505063802 11 345 0.0 0.0 0.00 0.00 0.00 92 1011.0
20260505063701 11 345 0.0 0.0 0.00 0.00 0.00 92 1011.0
20260505063602 11 345 0.0 0.0 0.00 0.00 0.00 92 1011.0
20260505063501 11 345 0.0 0.0 0.00 0.00 0.00 92 1011.0
20260505063402 11 345 0.0 0.0 0.00 0.00 0.00 92 1011.0
20260505063302 11 345 0.0 0.0 0.00 0.00 0.00 92 1011.0
20260505063201 11 345 0.0 0.0 0.00 0.00 0.00 92 1011.0
20260505063102 11 345 0.0 0.0 0.00 0.00 0.00 92 1011.2
20260505063001 11 345 0.0 0.0 0.00 0.00 0.00 92 1011.2
20260505062902 11 345 0.0 0.0 0.00 0.00 0.00 92 1011.0
20260505062801 11 345 0.0 0.0 0.00 0.00 0.00 92 1011.2
20260505062702 11 345 0.0 0.0 0.00 0.00 0.00 92 1011.2
20260505062601 11 345 0.0 0.0 0.00 0.00 0.00 92 1011.0
20260505062502 11 345 0.0 0.0 0.00 0.00 0.00 92 1011.0
20260505062402 11 345 0.0 0.0 0.00 0.00 0.00 92 1011.2
20260505062301 11 345 0.0 0.0 0.00 0.00 0.00 92 1011.2
20260505062202 11 345 0.0 0.0 0.00 0.00 0.00 92 1011.2
20260505062101 11 345 0.0 0.0 0.00 0.00 0.00 92 1011.2
20260505062002 11 345 0.0 0.0 0.00 0.00 0.00 92 1011.2
20260505061602 11 345 0.0 0.0 0.00 0.00 0.00 92 1011.2
20260505061502 11 345 0.0 0.0 0.00 0.00 0.00 92 1011.0
20260505061402 11 345 0.0 0.0 0.00 0.00 0.00 92 1011.2
20260505061301 11 345 0.0 0.0 0.00 0.00 0.00 92 1011.2
20260505061202 11 357 0.0 0.0 0.00 0.00 0.00 92 1011.2
20260505061101 11 357 0.0 0.0 0.00 0.00 0.00 92 1011.2
20260505061002 11 357 0.0 0.0 0.00 0.00 0.00 92 1011.2
20260505060901 11 150 0.0 0.0 0.00 0.00 0.00 92 1011.3
20260505060802 11 150 0.0 0.0 0.00 0.00 0.00 92 1011.2
20260505060702 11 150 0.0 0.0 0.00 0.00 0.00 92 1011.2
20260505060602 11 150 0.0 0.0 0.00 0.00 0.00 92 1011.3
20260505060502 11 150 0.0 0.0 0.00 0.00 0.00 92 1011.2
20260505060401 11 150 0.0 0.0 0.00 0.00 0.00 92 1011.3
20260505060302 11 150 0.0 0.0 0.00 0.00 0.00 92 1011.3
20260505060201 10 165 0.0 0.0 0.00 0.00 0.00 92 1011.2
20260505060001 10 165 0.0 0.0 0.00 0.00 0.00 92 1011.2
20260505055902 10 165 0.0 0.0 0.00 0.00 0.00 92 1011.2
20260505055802 10 165 0.0 0.0 0.00 0.00 0.00 92 1011.2
20260505055701 10 165 0.0 0.0 0.00 0.00 0.00 92 1011.2
20260505055602 10 142 0.0 0.0 0.00 0.00 0.00 92 1011.0
20260505055501 10 142 0.0 0.0 0.00 0.00 0.00 92 1011.2
20260505055402 10 142 0.0 0.0 0.00 0.00 0.00 92 1011.2
20260505055303 10 150 0.0 0.0 0.00 0.00 0.00 92 1011.2
20260505055202 10 150 0.0 0.0 0.00 0.00 0.00 92 1011.2
20260505055101 10 175 0.0 0.0 0.00 0.00 0.00 92 1011.0
20260505055001 10 175 0.0 0.0 0.00 0.00 0.00 92 1011.2
20260505054902 10 187 0.0 0.0 0.00 0.00 0.00 92 1011.2
20260505054801 10 187 0.0 0.0 0.00 0.00 0.00 92 1011.0
20260505054702 10 187 0.0 0.0 0.00 0.00 0.00 92 1011.0
20260505054601 10 222 0.0 0.0 0.00 0.00 0.00 92 1011.0
20260505054502 10 222 0.0 0.0 0.00 0.00 0.00 92 1011.0
20260505054401 10 222 0.0 0.0 0.00 0.00 0.00 92 1010.9
20260505054302 10 232 0.0 0.0 0.00 0.00 0.00 92 1011.0
20260505054201 10 232 0.0 0.0 0.00 0.00 0.00 92 1011.0
20260505054101 10 232 0.0 0.0 0.00 0.00 0.00 92 1011.0
20260505054002 10 232 0.0 0.0 0.00 0.00 0.00 92 1011.0
20260505053901 10 222 0.0 0.0 0.00 0.00 0.00 92 1011.0
20260505053802 10 222 0.0 0.0 0.00 0.00 0.00 92 1010.9
20260505053702 10 222 0.0 0.0 0.00 0.00 0.00 92 1011.0
20260505053602 10 220 0.0 0.0 0.00 0.00 0.00 92 1011.0
20260505053502 10 220 0.0 0.0 0.00 0.00 0.00 92 1011.0
20260505053401 10 220 0.0 0.0 0.00 0.00 0.00 92 1011.0
20260505053302 10 217 0.0 0.0 0.00 0.00 0.00 92 1011.0
20260505053201 10 217 0.0 0.0 0.00 0.00 0.00 92 1011.0
20260505053102 10 217 0.0 0.0 0.00 0.00 0.00 92 1011.2
20260505053001 10 217 0.0 0.0 0.00 0.00 0.00 92 1011.0
20260505052902 10 217 0.0 0.0 0.00 0.00 0.00 92 1011.2
20260505052802 10 215 0.0 0.0 0.00 0.00 0.00 92 1011.2
20260505052701 10 215 0.0 0.0 0.00 0.00 0.00 92 1011.0
20260505052602 10 215 0.0 0.0 0.00 0.00 0.00 92 1011.0
20260505052501 10 215 0.0 0.0 0.00 0.00 0.00 92 1011.2
20260505052402 10 215 0.0 0.0 0.00 0.00 0.00 92 1011.2
20260505052301 10 215 0.0 0.0 0.00 0.00 0.00 92 1011.2
20260505052202 10 215 0.0 0.0 0.00 0.00 0.00 92 1011.2
20260505052101 10 215 0.0 0.0 0.00 0.00 0.00 92 1011.2
20260505052002 10 217 0.0 0.0 0.00 0.00 0.00 92 1011.0
20260505051902 10 217 0.0 0.0 0.00 0.00 0.00 92 1011.2
20260505051801 10 217 0.0 0.0 0.00 0.00 0.00 92 1011.0
20260505051702 10 217 0.0 0.0 0.00 0.00 0.00 92 1011.0
20260505051601 10 217 0.0 0.0 0.00 0.00 0.00 92 1011.0
20260505051502 10 167 0.0 0.0 0.00 0.00 0.00 92 1011.0
20260505051401 10 167 0.0 0.0 0.00 0.00 0.00 92 1011.0
20260505051302 10 167 0.0 0.0 0.00 0.00 0.00 92 1011.0
20260505051202 10 167 0.0 0.0 0.00 0.00 0.00 92 1011.0
20260505051102 10 167 0.0 0.0 0.00 0.00 0.00 92 1011.0
20260505051002 10 160 0.0 0.0 0.00 0.00 0.00 92 1011.0
20260505050901 10 160 0.0 0.0 0.00 0.00 0.00 92 1011.0
20260505050802 10 170 0.0 0.0 0.00 0.00 0.00 92 1011.2
20260505050701 10 170 0.0 0.0 0.00 0.00 0.00 92 1011.0
20260505050602 10 170 0.0 0.0 0.00 0.00 0.00 92 1011.2
20260505050501 10 172 0.0 0.0 0.00 0.00 0.00 92 1011.2
20260505050402 10 172 0.0 0.0 0.00 0.00 0.00 92 1011.0
20260505050302 10 172 0.0 0.0 0.00 0.00 0.00 92 1011.0
20260505050202 10 172 0.0 0.0 0.00 0.00 0.00 92 1011.0
20260505041702 10 95 0.0 0.0 0.00 0.00 0.00 92 1011.3
20260505041601 10 95 0.0 0.0 0.00 0.00 0.00 92 1011.3
20260505041502 10 95 0.0 0.0 0.00 0.00 0.00 92 1011.3
20260505041401 10 95 0.0 0.0 0.00 0.00 0.00 92 1011.3
20260505041302 10 95 0.0 0.0 0.00 0.00 0.00 92 1011.4
20260505041201 10 95 0.0 0.0 0.00 0.00 0.00 92 1011.3
20260505041102 10 87 0.0 0.0 0.00 0.00 0.00 92 1011.3
20260505041002 10 87 0.0 0.0 0.00 0.00 0.00 92 1011.3
20260505040902 10 82 0.0 0.0 0.00 0.00 0.00 92 1011.4
20260505040801 10 82 0.0 0.0 0.00 0.00 0.00 92 1011.3
20260505040701 10 82 0.0 0.0 0.00 0.00 0.00 92 1011.4
20260505040602 10 82 0.0 0.0 0.00 0.00 0.00 92 1011.3
20260505040501 10 82 0.0 0.0 0.00 0.00 0.00 92 1011.3
20260505040402 10 82 0.0 0.0 0.00 0.00 0.00 92 1011.3
20260505040301 10 82 0.0 0.0 0.00 0.00 0.00 92 1011.3
20260505040202 10 82 0.0 0.0 0.00 0.00 0.00 92 1011.3
20260505040001 10 82 0.0 0.0 0.00 0.00 0.00 92 1011.3
20260505035902 10 82 0.0 0.0 0.00 0.00 0.00 92 1011.3
20260505035801 10 82 0.0 0.0 0.00 0.00 0.00 92 1011.3
20260505035702 10 82 0.0 0.0 0.00 0.00 0.00 92 1011.3
20260505035601 10 82 0.0 0.0 0.00 0.00 0.00 92 1011.3
20260505035502 10 82 0.0 0.0 0.00 0.00 0.00 92 1011.3
20260505035402 10 82 0.0 0.0 0.00 0.00 0.00 92 1011.3
20260505035301 10 82 0.0 0.0 0.00 0.00 0.00 92 1011.3
20260505035202 10 82 0.0 0.0 0.00 0.00 0.00 92 1011.3
20260505035101 10 82 0.0 0.0 0.00 0.00 0.00 92 1011.3
20260505035002 10 82 0.0 0.0 0.00 0.00 0.00 92 1011.2
20260505034901 10 82 0.0 0.0 0.00 0.00 0.00 92 1011.3
20260505034802 10 82 0.0 0.0 0.00 0.00 0.00 92 1011.3
20260505034701 10 82 0.0 0.0 0.00 0.00 0.00 92 1011.2
20260505034602 10 82 0.0 0.0 0.00 0.00 0.00 92 1011.2
20260505034501 10 82 0.0 0.0 0.00 0.00 0.00 92 1011.3